M I D A S
Marine Information and Data Acquisition System
Tripno 1869 of the Zeeleeuw from 2010-04-27 06:24:28 to 2010-04-27 13:59:42
Back to CruiseResearch ActivitiesStationsMapUnderway DataData graphs

EquipmentUnitsComment
TimeDGPSUTC
LatitudeDGPSDM.mWGS84
LongitudeDGPSDM.mWGS84
TemperatureSBE03/SBE38deg celciusITS90
ConductivitySBE21S/mITS90
SalinitySBE21 Practical Salinity Units
ChlorophylAChelsea fluorimeterg/lCalibrated in Aceton
Missing or incorrect values are displayed as -999
Sea surface data collected by the RV Zeeleeuw from 2010-04-27 05:51:42 to 2010-04-27 14:10:25
Time Latitude Longitude Temperature Conductivity Salinity ChlorophylA
2010-04-27 05:52:47 51°13.662 2°55.96 18.3912 0.078376 0.436069 -1.000568
2010-04-27 05:53:47 51°13.662 2°55.96 18.3852 0.078376 0.43609 -1.000568
2010-04-27 05:54:48 51°13.662 2°55.96 18.3801 0.078376 0.436119 -1.000568
2010-04-27 05:55:47 51°13.662 2°55.96 18.3918 0.078376 0.436141 -1.000568
2010-04-27 05:56:47 51°13.663 2°55.96 18.368 0.078376 0.436162 -1.000568
2010-04-27 05:57:48 51°13.663 2°55.959 18.3855 0.078376 0.436198 -1.000568
2010-04-27 05:58:47 51°13.663 2°55.959 18.4026 0.078376 0.436212 -1.000568
2010-04-27 05:59:47 51°13.663 2°55.96 18.4062 0.078376 0.436234 -1.000568
2010-04-27 06:00:48 51°13.663 2°55.96 18.415 0.078376 0.436248 -1.000568
2010-04-27 06:01:47 51°13.663 2°55.961 18.4214 0.078376 0.436277 -1.035392
2010-04-27 06:02:48 51°13.663 2°55.96 18.4233 0.078376 0.436291 -1.000568
2010-04-27 06:03:47 51°13.663 2°55.96 18.4378 0.078376 0.43632 -1.000568
2010-04-27 06:04:47 51°13.662 2°55.959 18.4696 0.078376 0.436342 -1.000568
2010-04-27 06:05:47 51°13.662 2°55.959 18.4731 0.078376 0.436371 -1.000568
2010-04-27 06:06:47 51°13.662 2°55.959 18.4803 0.078376 0.436399 -1.000568
2010-04-27 06:07:46 51°13.662 2°55.959 18.4817 0.078376 0.436435 -1.035392
2010-04-27 06:08:45 51°13.662 2°55.959 18.4771 0.078376 0.436471 -1.035392
2010-04-27 06:09:46 51°13.662 2°55.959 18.4819 0.078376 0.4365 -1.000568
2010-04-27 06:10:45 51°13.662 2°55.959 18.4825 0.078376 0.436536 -1.000568
2010-04-27 06:11:45 51°13.662 2°55.959 18.4851 0.078376 0.436572 -1.000568
2010-04-27 06:12:43 51°13.662 2°55.959 18.4864 0.078376 0.436601 -0.965744
2010-04-27 06:13:43 51°13.662 2°55.96 18.4901 0.078376 0.436637 -1.035392
2010-04-27 06:14:43 51°13.662 2°55.961 18.5012 0.078376 0.436666 -1.000568
2010-04-27 06:15:43 51°13.662 2°55.961 18.5058 0.078272 0.436094 -1.000568
2010-04-27 06:16:43 51°13.662 2°55.96 18.5247 0.078376 0.436723 -1.035392
2010-04-27 06:17:44 51°13.662 2°55.96 18.5484 0.078376 0.436759 -1.035392
2010-04-27 06:18:44 51°13.661 2°55.961 18.5877 0.078376 0.436788 -1.035392
2010-04-27 06:19:43 51°13.661 2°55.96 18.5765 0.078376 0.436817 -1.000568
2010-04-27 06:20:43 51°13.662 2°55.958 18.3372 0.078376 0.436853 -1.035392
2010-04-27 06:21:47 51°13.68 2°55.879 18.4883 0.078272 0.436288 -1.000568
2010-04-27 06:22:47 51°13.69 2°55.785 18.5124 0.078272 0.43631 -1.000568
2010-04-27 06:23:47 51°13.695 2°55.769 18.5094 0.078376 0.436954 -0.965744
2010-04-27 06:24:47 51°13.691 2°55.754 18.6359 0.078376 0.436961 -1.000568
2010-04-27 06:25:47 51°13.744 2°55.715 18.3188 0.078376 0.436997 -1.000568
2010-04-27 06:26:47 51°13.846 2°55.623 18.3229 0.078272 0.43644 -1.000568
2010-04-27 06:27:47 51°13.97 2°55.535 18.3497 0.078272 0.436469 -1.000568
2010-04-27 06:28:47 51°14.104 2°55.44 18.4203 0.078272 0.436497 -1.000568
2010-04-27 06:29:46 51°14.242 2°55.326 18.4021 0.078272 0.436519 -1.000568
2010-04-27 06:30:44 51°14.384 2°55.188 18.3903 0.078376 0.437142 -1.000568
2010-04-27 06:31:43 51°14.548 2°55.014 18.2556 0.078272 0.436598 -1.035392
2010-04-27 06:32:43 51°14.721 2°54.778 18.1869 0.078272 0.436591 -1.035392
2010-04-27 06:33:43 51°14.905 2°54.563 18.3224 0.078272 0.436634 -1.000568
2010-04-27 06:34:43 51°15.014 2°54.275 18.4123 0.078272 0.436699 -1.000568
2010-04-27 06:35:43 51°14.865 2°54.021 18.099 0.078272 0.436692 -1.035392
2010-04-27 06:36:43 51°14.64 2°53.884 18.2938 0.078272 0.436699 -1.000568
2010-04-27 06:37:43 51°14.407 2°53.792 18.2241 0.078376 0.437344 -1.035392
2010-04-27 06:38:43 51°14.207 2°53.595 18.2611 0.078272 0.4368 -1.000568
2010-04-27 06:39:43 51°14.057 2°53.289 18.2965 0.078272 0.436887 -1.035392
2010-04-27 06:40:43 51°13.881 2°53.012 18.1867 0.078272 0.436909 -1.035392
2010-04-27 06:41:43 51°13.738 2°52.687 18.2733 0.078272 0.436981 -1.000568
2010-04-27 06:42:43 51°13.599 2°52.354 18.276 0.078272 0.437025 -1.000568
2010-04-27 06:43:43 51°13.468 2°52.01 18.2146 0.078272 0.437082 -1.000568
2010-04-27 06:44:43 51°13.34 2°51.66 18.2484 0.078272 0.437119 -0.965744
2010-04-27 06:45:43 51°13.205 2°51.316 18.2834 0.078272 0.437148 -1.035392
2010-04-27 06:46:43 51°13.073 2°50.971 18.2842 0.078272 0.437184 -1.035392
2010-04-27 06:47:43 51°12.938 2°50.629 18.2794 0.078272 0.437205 -1.000568
2010-04-27 06:48:43 51°12.805 2°50.285 18.2689 0.078272 0.437234 -1.000568
2010-04-27 06:49:43 51°12.675 2°49.938 18.2837 0.078272 0.437249 -0.965744
2010-04-27 06:50:43 51°12.549 2°49.589 18.2483 0.078272 0.437263 -1.000568
2010-04-27 06:51:43 51°12.459 2°49.207 18.2797 0.078272 0.437285 -1.035392
2010-04-27 06:52:43 51°12.38 2°48.814 18.3157 0.078272 0.437307 -1.000568
2010-04-27 06:53:43 51°12.3 2°48.426 18.2997 0.078272 0.437321 -1.035392
2010-04-27 06:54:43 51°12.219 2°48.039 18.3142 0.078272 0.437336 -0.965744
2010-04-27 06:55:43 51°12.14 2°47.652 18.3196 0.078272 0.437336 -1.000568
2010-04-27 06:56:43 51°12.074 2°47.258 18.3524 0.078272 0.43735 -1.035392
2010-04-27 06:57:43 51°12.002 2°46.865 18.3309 0.078272 0.43735 -1.000568
2010-04-27 06:58:43 51°11.934 2°46.471 18.3307 0.078272 0.437357 -1.000568
2010-04-27 06:59:43 51°11.874 2°46.071 18.3709 0.078272 0.437365 -1.000568
2010-04-27 07:00:43 51°11.817 2°45.671 18.3661 0.078272 0.437357 -1.000568
2010-04-27 07:01:43 51°11.763 2°45.286 18.3398 0.078272 0.437379 -1.035392
2010-04-27 07:02:43 51°11.723 2°45.036 18.4153 0.078272 0.437386 -1.000568
2010-04-27 07:03:43 51°11.711 2°44.871 18.4135 0.078272 0.437386 -1.035392
2010-04-27 07:04:43 51°11.717 2°44.744 18.4311 0.078272 0.437386 -1.000568
2010-04-27 07:05:43 51°11.717 2°44.635 18.4496 0.078272 0.437386 -1.000568
2010-04-27 07:06:43 51°11.712 2°44.535 18.4248 0.078272 0.437394 -1.035392
2010-04-27 07:07:43 51°11.706 2°44.44 18.4573 0.078272 0.437408 -1.000568
2010-04-27 07:08:43 51°11.702 2°44.348 18.4647 0.078272 0.437415 -1.000568
2010-04-27 07:09:43 51°11.697 2°44.258 18.4752 0.078272 0.437415 -1.000568
2010-04-27 07:10:43 51°11.693 2°44.17 18.4759 0.078272 0.437423 -1.000568
2010-04-27 07:11:43 51°11.688 2°44.085 18.4866 0.078272 0.43743 -1.035392
2010-04-27 07:12:43 51°11.682 2°44.006 18.4468 0.078272 0.437437 -1.000568
2010-04-27 07:13:43 51°11.676 2°43.93 18.4799 0.078272 0.437444 -0.965744
2010-04-27 07:14:43 51°11.671 2°43.856 18.4946 0.078272 0.437444 -1.000568
2010-04-27 07:15:43 51°11.666 2°43.784 18.5152 0.078272 0.437452 -1.035392
2010-04-27 07:16:43 51°11.66 2°43.713 18.5051 0.078272 0.437466 -1.000568
2010-04-27 07:17:43 51°11.655 2°43.643 18.5133 0.078272 0.437481 -1.000568
2010-04-27 07:18:43 51°11.648 2°43.573 18.5263 0.078272 0.437488 -1.000568
2010-04-27 07:19:43 51°11.642 2°43.505 18.5475 0.078272 0.437502 -1.000568
2010-04-27 07:20:43 51°11.637 2°43.436 18.5273 0.078272 0.437502 -1.000568
2010-04-27 07:21:43 51°11.635 2°43.367 18.5323 0.078272 0.43751 -1.000568
2010-04-27 07:22:43 51°11.647 2°43.305 18.5394 0.078272 0.437539 -1.000568
2010-04-27 07:23:43 51°11.671 2°43.264 18.5495 0.078272 0.437546 -1.000568
2010-04-27 07:24:43 51°11.7 2°43.245 18.5841 0.078272 0.437546 -1.000568
2010-04-27 07:25:43 51°11.73 2°43.228 18.5686 0.078272 0.437546 -1.035392
2010-04-27 07:26:43 51°11.753 2°43.204 18.569 0.078272 0.437553 -1.000568
2010-04-27 07:27:43 51°11.769 2°43.176 18.5828 0.078272 0.437546 -1.000568
2010-04-27 07:28:43 51°11.778 2°43.145 18.586 0.078272 0.437546 -1.000568
2010-04-27 07:29:43 51°11.782 2°43.114 18.5945 0.078272 0.437546 -1.035392
2010-04-27 07:30:43 51°11.783 2°43.083 18.5981 0.078272 0.437546 -1.000568
2010-04-27 07:31:43 51°11.781 2°43.055 18.5915 0.078272 0.437553 -1.035392
2010-04-27 07:32:43 51°11.777 2°43.027 18.5298 0.078272 0.437568 -1.035392
2010-04-27 07:33:43 51°11.772 2°43.003 18.54 0.078272 0.437589 -1.000568
2010-04-27 07:34:43 51°11.766 2°42.98 18.5533 0.078272 0.437618 -1.035392
2010-04-27 07:35:43 51°11.76 2°42.958 18.5645 0.078272 0.437647 -1.035392
2010-04-27 07:36:43 51°11.753 2°42.938 18.5791 0.078272 0.437676 -1.000568
2010-04-27 07:37:43 51°11.747 2°42.92 18.5955 0.078272 0.437706 -1.000568
2010-04-27 07:38:43 51°11.751 2°42.883 18.6139 0.078272 0.437756 -1.000568
2010-04-27 07:39:43 51°11.742 2°42.811 18.6226 0.078272 0.437778 -1.000568
2010-04-27 07:40:43 51°11.702 2°42.726 18.6176 0.078272 0.437771 -1.000568
2010-04-27 07:41:43 51°11.641 2°42.604 18.6396 0.078272 0.437807 -0.965744
2010-04-27 07:42:43 51°11.573 2°42.46 18.6469 0.078272 0.437814 -1.000568
2010-04-27 07:43:43 51°11.508 2°42.28 18.6797 0.078272 0.437814 -1.000568
2010-04-27 07:44:43 51°11.42 2°42.091 18.6769 0.078272 0.437785 -1.035392
2010-04-27 07:45:43 51°11.316 2°41.869 18.6881 0.078272 0.437764 -1.000568
2010-04-27 07:46:43 51°11.199 2°41.615 18.712 0.078272 0.437749 -1.035392
2010-04-27 07:47:43 51°11.079 2°41.356 18.7318 0.078272 0.437735 -0.965744
2010-04-27 07:48:43 51°10.96 2°41.095 18.7535 0.078272 0.437706 -0.965744
2010-04-27 07:49:43 51°10.84 2°40.834 18.7701 0.078272 0.437684 -0.965744
2010-04-27 07:50:43 51°10.732 2°40.556 18.7856 0.078272 0.437662 -1.000568
2010-04-27 07:51:43 51°10.627 2°40.27 18.7972 0.078272 0.437655 -1.000568
2010-04-27 07:52:43 51°10.523 2°39.981 18.8254 0.078272 0.437633 -1.000568
2010-04-27 07:53:43 51°10.419 2°39.692 18.8393 0.078272 0.437626 -1.035392
2010-04-27 07:54:43 51°10.314 2°39.405 18.8569 0.078272 0.437611 -1.035392
2010-04-27 07:55:43 51°10.211 2°39.118 18.8865 0.078272 0.437618 -1.000568
2010-04-27 07:56:43 51°10.107 2°38.832 18.9028 0.078272 0.437626 -1.000568
2010-04-27 07:57:43 51°10.003 2°38.546 18.9326 0.078272 0.437633 -1.000568
2010-04-27 07:58:43 51°9.875 2°38.288 18.9273 0.078272 0.437655 -1.000568
2010-04-27 07:59:43 51°9.763 2°38.079 18.9715 0.078272 0.437691 -1.035392
2010-04-27 08:00:43 51°9.681 2°37.92 18.983 0.078272 0.43772 -1.000568
2010-04-27 08:01:43 51°9.609 2°37.777 19.0014 0.078272 0.437749 -1.000568
2010-04-27 08:02:43 51°9.54 2°37.642 19.0198 0.078272 0.437785 -1.000568
2010-04-27 08:03:43 51°9.487 2°37.551 19.0488 0.078272 0.437829 -1.035392
2010-04-27 08:04:44 51°9.482 2°37.521 19.0517 0.078272 0.437843 -1.035392
2010-04-27 08:05:45 51°9.48 2°37.496 19.0884 0.078272 0.437887 -1.000568
2010-04-27 08:06:43 51°9.477 2°37.473 19.0975 0.078272 0.437923 -1.000568
2010-04-27 08:07:43 51°9.472 2°37.45 19.1301 0.078272 0.437945 -1.000568
2010-04-27 08:08:43 51°9.465 2°37.428 19.1292 0.078272 0.43796 -1.000568
2010-04-27 08:09:43 51°9.457 2°37.407 19.1474 0.078272 0.437989 -1.000568
2010-04-27 08:10:43 51°9.449 2°37.386 19.1687 0.078272 0.438011 -1.000568
2010-04-27 08:11:43 51°9.44 2°37.365 19.1914 0.078272 0.438032 -1.000568
2010-04-27 08:13:03 51°9.428 2°37.339 19.2099 0.078272 0.438047 -1.035392
2010-04-27 08:14:09 51°9.418 2°37.318 19.2255 0.078272 0.438076 -0.965744
2010-04-27 08:15:04 51°9.404 2°37.316 19.2732 0.078272 0.438091 -1.035392
2010-04-27 08:16:59 51°9.457 2°37.492 19.2758 0.078272 0.438091 -1.000568
2010-04-27 08:17:59 51°9.5 2°37.548 19.3078 0.078272 0.438134 -0.965744
2010-04-27 08:18:59 51°9.511 2°37.53 19.3228 0.078272 0.438105 -1.000568
2010-04-27 08:19:59 51°9.515 2°37.502 19.3395 0.078272 0.438098 -1.000568
2010-04-27 08:20:59 51°9.517 2°37.473 19.35 0.078272 0.43812 -1.035392
2010-04-27 08:21:59 51°9.518 2°37.444 19.3629 0.078272 0.438141 -1.035392
2010-04-27 08:22:59 51°9.518 2°37.417 19.3878 0.078272 0.438171 -1.000568
2010-04-27 08:23:59 51°9.519 2°37.392 19.4116 0.078272 0.438192 -1.000568
2010-04-27 08:24:59 51°9.519 2°37.369 19.4399 0.078272 0.438207 -1.000568
2010-04-27 08:25:59 51°9.519 2°37.349 19.4312 0.078272 0.438229 -1.000568
2010-04-27 08:26:59 51°9.519 2°37.332 19.4621 0.078272 0.438243 -1.000568
2010-04-27 08:27:59 51°9.52 2°37.315 19.4852 0.078272 0.438258 -1.035392
2010-04-27 08:28:59 51°9.521 2°37.302 19.5005 0.078272 0.438272 -1.035392
2010-04-27 08:29:59 51°9.522 2°37.29 19.5208 0.078272 0.43828 -1.035392
2010-04-27 08:30:59 51°9.522 2°37.279 19.5239 0.078272 0.438287 -1.000568
2010-04-27 08:31:59 51°9.522 2°37.269 19.5406 0.078272 0.438287 -1.000568
2010-04-27 08:32:59 51°9.521 2°37.261 19.5648 0.078272 0.438294 -1.035392
2010-04-27 08:33:59 51°9.52 2°37.252 19.5846 0.078272 0.438287 -1.000568
2010-04-27 08:34:59 51°9.527 2°37.254 19.5591 0.078272 0.438287 -1.035392
2010-04-27 08:35:59 51°9.531 2°37.302 19.6043 0.078272 0.438316 -1.000568
2010-04-27 08:36:59 51°9.511 2°37.38 19.6408 0.078272 0.438294 -1.035392
2010-04-27 08:37:59 51°9.502 2°37.48 19.6241 0.078272 0.438272 -1.035392
2010-04-27 08:38:59 51°9.487 2°37.585 19.6505 0.078272 0.438272 -1.000568
2010-04-27 08:39:59 51°9.469 2°37.633 19.6878 0.078272 0.438265 -1.035392
2010-04-27 08:40:59 51°9.461 2°37.655 19.7045 0.078272 0.438243 -1.000568
2010-04-27 08:41:59 51°9.454 2°37.672 19.7225 0.078272 0.438222 -1.000568
2010-04-27 08:42:59 51°9.447 2°37.684 19.7325 0.078272 0.438207 -1.000568
2010-04-27 08:43:59 51°9.443 2°37.694 19.7311 0.078272 0.438185 -1.000568
2010-04-27 08:44:59 51°9.437 2°37.701 19.7679 0.078272 0.438178 -1.035392
2010-04-27 08:45:59 51°9.432 2°37.707 19.7761 0.078272 0.438171 -1.000568
2010-04-27 08:46:59 51°9.427 2°37.71 19.7846 0.078272 0.438163 -1.035392
2010-04-27 08:47:59 51°9.422 2°37.712 19.8057 0.078272 0.438163 -1.035392
2010-04-27 08:48:59 51°9.417 2°37.713 19.8116 0.078272 0.438178 -1.035392
2010-04-27 08:49:59 51°9.412 2°37.713 19.8274 0.078272 0.438178 -1.000568
2010-04-27 08:50:59 51°9.408 2°37.713 19.8385 0.078272 0.438192 -1.000568
2010-04-27 08:51:59 51°9.403 2°37.713 19.8661 0.078272 0.4382 -1.000568
2010-04-27 08:52:59 51°9.398 2°37.713 19.8637 0.078272 0.438222 -1.000568
2010-04-27 08:53:59 51°9.392 2°37.713 19.8789 0.078272 0.438222 -1.035392
2010-04-27 08:54:59 51°9.387 2°37.713 19.8911 0.078272 0.438243 -1.035392
2010-04-27 08:55:59 51°9.381 2°37.714 19.9052 0.078272 0.438265 -1.000568
2010-04-27 08:56:59 51°9.376 2°37.716 19.9314 0.078272 0.438272 -1.035392
2010-04-27 08:57:59 51°9.371 2°37.72 19.9325 0.078272 0.438287 -1.000568
2010-04-27 08:58:59 51°9.365 2°37.724 19.9492 0.078272 0.438309 -1.035392
2010-04-27 08:59:59 51°9.361 2°37.729 19.9671 0.078272 0.438309 -1.000568
2010-04-27 09:00:59 51°9.356 2°37.735 19.9737 0.078272 0.438316 -1.000568
2010-04-27 09:01:59 51°9.374 2°37.756 20.0088 0.078272 0.438338 -1.000568
2010-04-27 09:02:59 51°9.418 2°37.693 19.9893 0.078272 0.438345 -1.000568
2010-04-27 09:03:59 51°9.45 2°37.575 20.0053 0.078272 0.438331 -1.000568
2010-04-27 09:04:59 51°9.489 2°37.515 20.0364 0.078272 0.438382 -0.965744
2010-04-27 09:05:59 51°9.497 2°37.504 20.0518 0.078272 0.438382 -1.000568
2010-04-27 09:06:59 51°9.5 2°37.496 20.0558 0.078272 0.438367 -1.000568
2010-04-27 09:07:59 51°9.501 2°37.489 20.0695 0.078272 0.438374 -1.000568
2010-04-27 09:08:59 51°9.501 2°37.485 20.0793 0.078272 0.438382 -1.000568
2010-04-27 09:09:59 51°9.502 2°37.483 20.0952 0.078272 0.438382 -1.000568
2010-04-27 09:10:59 51°9.503 2°37.481 20.1061 0.078272 0.438382 -0.965744
2010-04-27 09:11:59 51°9.503 2°37.482 20.1241 0.078272 0.438389 -1.000568
2010-04-27 09:12:59 51°9.505 2°37.484 20.1236 0.078272 0.438389 -1.035392
2010-04-27 09:13:59 51°9.508 2°37.487 20.1381 0.078272 0.438389 -1.000568
2010-04-27 09:14:59 51°9.51 2°37.492 20.1604 0.078272 0.438389 -1.035392
2010-04-27 09:15:59 51°9.514 2°37.498 20.1608 0.078272 0.438382 -1.035392
2010-04-27 09:16:59 51°9.519 2°37.506 20.1762 0.078272 0.438374 -1.000568
2010-04-27 09:17:59 51°9.524 2°37.515 20.1913 0.078272 0.438374 -1.000568
2010-04-27 09:18:59 51°9.529 2°37.525 20.1948 0.078272 0.43836 -1.035392
2010-04-27 09:19:59 51°9.535 2°37.537 20.2077 0.078272 0.438353 -1.000568
2010-04-27 09:20:59 51°9.542 2°37.55 20.2168 0.078272 0.438345 -1.035392
2010-04-27 09:21:59 51°9.548 2°37.565 20.2278 0.078272 0.438338 -1.000568
2010-04-27 09:22:59 51°9.556 2°37.58 20.2416 0.078272 0.438338 -1.035392
2010-04-27 09:23:59 51°9.565 2°37.598 20.2478 0.078272 0.438331 -1.035392
2010-04-27 09:24:59 51°9.575 2°37.618 20.256 0.078272 0.438323 -1.000568
2010-04-27 09:25:59 51°9.585 2°37.639 20.2677 0.078272 0.438316 -1.035392
2010-04-27 09:26:59 51°9.609 2°37.635 20.2834 0.078272 0.438345 -1.000568
2010-04-27 09:27:59 51°9.598 2°37.574 20.2858 0.078272 0.438345 -1.035392
2010-04-27 09:28:59 51°9.524 2°37.55 20.2995 0.078272 0.438294 -1.035392
2010-04-27 09:29:59 51°9.449 2°37.522 20.3078 0.078272 0.438331 -1.000568
2010-04-27 09:30:59 51°9.426 2°37.524 20.3174 0.078272 0.438331 -1.000568
2010-04-27 09:31:59 51°9.407 2°37.539 20.3265 0.078272 0.438316 -1.035392
2010-04-27 09:32:59 51°9.392 2°37.558 20.3363 0.078272 0.438309 -1.000568
2010-04-27 09:33:59 51°9.38 2°37.577 20.3454 0.078272 0.438309 -1.000568
2010-04-27 09:34:59 51°9.371 2°37.597 20.3516 0.078272 0.438302 -1.000568
2010-04-27 09:35:59 51°9.365 2°37.617 20.3637 0.078272 0.438287 -1.000568
2010-04-27 09:36:59 51°9.361 2°37.639 20.3713 0.078272 0.438294 -1.000568
2010-04-27 09:37:59 51°9.359 2°37.662 20.3813 0.078272 0.43828 -1.000568
2010-04-27 09:38:59 51°9.358 2°37.686 20.3897 0.078272 0.438272 -1.035392
2010-04-27 09:39:59 51°9.358 2°37.709 20.4002 0.078272 0.438258 -1.000568
2010-04-27 09:40:59 51°9.36 2°37.733 20.4139 0.078272 0.438251 -1.000568
2010-04-27 09:41:59 51°9.362 2°37.756 20.4253 0.078272 0.438229 -1.035392
2010-04-27 09:42:59 51°9.366 2°37.779 20.4333 0.078272 0.438207 -1.000568
2010-04-27 09:43:59 51°9.371 2°37.803 20.4423 0.078272 0.438192 -1.000568
2010-04-27 09:44:59 51°9.376 2°37.827 20.4558 0.078272 0.438171 -1.000568
2010-04-27 09:45:59 51°9.38 2°37.852 20.4685 0.078272 0.438156 -1.035392
2010-04-27 09:46:59 51°9.386 2°37.878 20.4836 0.078272 0.43812 -0.965744
2010-04-27 09:47:59 51°9.392 2°37.904 20.4976 0.078272 0.438098 -1.035392
2010-04-27 09:48:59 51°9.399 2°37.932 20.5044 0.078272 0.438069 -1.035392
2010-04-27 09:49:59 51°9.399 2°37.942 20.5186 0.078272 0.438047 -1.000568
2010-04-27 09:50:59 51°9.38 2°37.834 20.5363 0.078272 0.438025 -1.035392
2010-04-27 09:51:59 51°9.417 2°37.684 20.5426 0.078272 0.438003 -1.035392
2010-04-27 09:52:59 51°9.447 2°37.57 20.5518 0.078272 0.437989 -1.000568
2010-04-27 09:53:59 51°9.454 2°37.467 20.5661 0.078376 0.438556 -1.035392
2010-04-27 09:54:59 51°9.472 2°37.434 20.5722 0.078272 0.43796 -1.035392
2010-04-27 09:55:59 51°9.499 2°37.444 20.5808 0.078272 0.437945 -1.000568
2010-04-27 09:56:59 51°9.525 2°37.466 20.59 0.078272 0.437916 -1.000568
2010-04-27 09:57:59 51°9.549 2°37.493 20.5995 0.078376 0.438505 -1.035392
2010-04-27 09:58:59 51°9.571 2°37.522 20.6117 0.078272 0.437902 -1.000568
2010-04-27 09:59:59 51°9.59 2°37.555 20.6234 0.078376 0.438483 -1.000568
2010-04-27 10:00:59 51°9.608 2°37.589 20.627 0.078376 0.438483 -1.000568
2010-04-27 10:01:59 51°9.625 2°37.626 20.633 0.078376 0.438468 -1.000568
2010-04-27 10:02:59 51°9.641 2°37.664 20.6404 0.078376 0.438468 -1.035392
2010-04-27 10:03:59 51°9.657 2°37.704 20.6504 0.078376 0.438461 -1.035392
2010-04-27 10:04:59 51°9.672 2°37.745 20.655 0.078376 0.438447 -1.000568
2010-04-27 10:05:59 51°9.686 2°37.786 20.6627 0.078376 0.438425 -1.000568
2010-04-27 10:06:59 51°9.7 2°37.828 20.667 0.078376 0.438417 -1.000568
2010-04-27 10:07:59 51°9.714 2°37.872 20.6747 0.078376 0.438403 -1.000568
2010-04-27 10:08:59 51°9.727 2°37.916 20.6756 0.078376 0.438388 -1.000568
2010-04-27 10:09:59 51°9.739 2°37.96 20.6775 0.078376 0.438381 -1.000568
2010-04-27 10:10:59 51°9.752 2°38.004 20.6811 0.078376 0.438352 -1.000568
2010-04-27 10:11:59 51°9.764 2°38.048 20.6844 0.078376 0.438337 -1.035392
2010-04-27 10:12:59 51°9.775 2°38.092 20.6874 0.078376 0.438323 -1.000568
2010-04-27 10:13:59 51°9.787 2°38.137 20.6911 0.078376 0.438301 -1.035392
2010-04-27 10:14:59 51°9.798 2°38.182 20.6922 0.078376 0.438301 -1.000568
2010-04-27 10:15:59 51°9.81 2°38.228 20.6978 0.078376 0.438294 -1.035392
2010-04-27 10:16:59 51°9.822 2°38.275 20.7058 0.078376 0.438279 -1.035392
2010-04-27 10:17:59 51°9.835 2°38.322 20.7032 0.078376 0.438265 -1.000568
2010-04-27 10:18:59 51°9.847 2°38.37 20.7072 0.078376 0.438258 -1.000568
2010-04-27 10:19:59 51°9.86 2°38.418 20.7095 0.078376 0.438243 -1.000568
2010-04-27 10:20:59 51°9.873 2°38.467 20.7111 0.078376 0.438228 -1.000568
2010-04-27 10:21:59 51°9.885 2°38.515 20.7127 0.078376 0.438221 -1.035392
2010-04-27 10:22:59 51°9.897 2°38.562 20.7162 0.078376 0.438207 -1.000568
2010-04-27 10:23:59 51°9.915 2°38.544 20.7202 0.078376 0.438185 -1.035392
2010-04-27 10:24:59 51°9.918 2°38.473 20.7286 0.078376 0.438178 -1.000568
2010-04-27 10:25:59 51°9.911 2°38.382 20.7286 0.078376 0.438163 -1.000568
2010-04-27 10:26:59 51°9.886 2°38.295 20.7321 0.078376 0.438149 -1.000568
2010-04-27 10:27:59 51°9.853 2°38.21 20.737 0.078376 0.438134 -1.000568
2010-04-27 10:28:59 51°9.822 2°38.123 20.7484 0.078376 0.438112 -1.035392
2010-04-27 10:29:59 51°9.792 2°38.034 20.7466 0.078376 0.438105 -1.000568
2010-04-27 10:30:59 51°9.763 2°37.946 20.7519 0.078376 0.43809 -1.000568
2010-04-27 10:31:59 51°9.734 2°37.858 20.7574 0.078376 0.438069 -1.035392
2010-04-27 10:32:59 51°9.705 2°37.771 20.772 0.078376 0.438061 -1.000568
2010-04-27 10:33:59 51°9.676 2°37.685 20.7639 0.078376 0.438054 -1.000568
2010-04-27 10:34:59 51°9.648 2°37.598 20.7698 0.078376 0.438032 -1.035392
2010-04-27 10:35:59 51°9.62 2°37.512 20.7738 0.078376 0.438018 -1.000568
2010-04-27 10:36:59 51°9.593 2°37.425 20.7738 0.078376 0.437996 -1.000568
2010-04-27 10:37:59 51°9.564 2°37.339 20.7765 0.078376 0.437982 -1.000568
2010-04-27 10:38:59 51°9.534 2°37.251 20.778 0.078376 0.437967 -1.035392
2010-04-27 10:39:59 51°9.504 2°37.163 20.7889 0.078376 0.437945 -1.035392
2010-04-27 10:40:59 51°9.474 2°37.076 20.787 0.078376 0.437931 -1.035392
2010-04-27 10:41:59 51°9.444 2°36.988 20.788 0.078376 0.437924 -1.000568
2010-04-27 10:42:59 51°9.415 2°36.9 20.7896 0.078376 0.437909 -1.070216
2010-04-27 10:43:59 51°9.385 2°36.812 20.7913 0.078376 0.437902 -1.000568
2010-04-27 10:44:59 51°9.357 2°36.726 20.7937 0.078376 0.43788 -1.035392
2010-04-27 10:45:59 51°9.328 2°36.639 20.795 0.078376 0.437887 -1.000568
2010-04-27 10:46:59 51°9.3 2°36.551 20.7996 0.078376 0.437873 -1.000568
2010-04-27 10:47:59 51°9.272 2°36.463 20.8028 0.078376 0.437866 -1.035392
2010-04-27 10:48:59 51°9.244 2°36.375 20.8045 0.078376 0.437851 -1.000568
2010-04-27 10:49:59 51°9.216 2°36.288 20.8069 0.078376 0.437844 -1.035392
2010-04-27 10:50:59 51°9.188 2°36.201 20.8142 0.078376 0.437844 -1.000568
2010-04-27 10:51:59 51°9.162 2°36.113 20.8233 0.078376 0.437815 -1.000568
2010-04-27 10:52:59 51°9.14 2°36.022 20.8261 0.078376 0.437808 -1.000568
2010-04-27 10:53:59 51°9.117 2°35.932 20.8215 0.078376 0.437793 -1.000568
2010-04-27 10:54:59 51°9.094 2°35.843 20.8337 0.078376 0.437771 -1.035392
2010-04-27 10:55:59 51°9.071 2°35.755 20.8281 0.07848 0.438352 -1.000568
2010-04-27 10:56:59 51°9.049 2°35.665 20.84 0.078376 0.437721 -1.000568
2010-04-27 10:57:59 51°9.026 2°35.576 20.8415 0.07848 0.438308 -1.000568
2010-04-27 10:58:59 51°9.003 2°35.485 20.8429 0.078376 0.437684 -1.035392
2010-04-27 10:59:59 51°8.98 2°35.393 20.8503 0.07848 0.438265 -1.000568
2010-04-27 11:00:59 51°8.957 2°35.3 20.8515 0.07848 0.438236 -1.000568
2010-04-27 11:01:59 51°8.932 2°35.205 20.856 0.07848 0.438236 -1.035392
2010-04-27 11:02:59 51°8.909 2°35.11 20.8557 0.07848 0.438221 -1.000568
2010-04-27 11:03:59 51°8.884 2°35.013 20.858 0.07848 0.438207 -1.000568
2010-04-27 11:04:59 51°8.856 2°34.914 20.8617 0.07848 0.438178 -1.035392
2010-04-27 11:05:59 51°8.833 2°34.812 20.8664 0.07848 0.438156 -1.035392
2010-04-27 11:06:59 51°8.811 2°34.709 20.884 0.07848 0.43812 -1.035392
2010-04-27 11:07:59 51°8.79 2°34.607 20.8755 0.07848 0.438076 -1.000568
2010-04-27 11:08:59 51°8.769 2°34.504 20.8795 0.07848 0.438011 -1.035392
2010-04-27 11:09:59 51°8.749 2°34.401 20.8825 0.07848 0.437967 -1.035392
2010-04-27 11:10:59 51°8.729 2°34.298 20.884 0.07848 0.43791 -1.035392
2010-04-27 11:11:59 51°8.709 2°34.195 20.887 0.07848 0.437859 -1.000568
2010-04-27 11:12:59 51°8.689 2°34.091 20.8898 0.07848 0.437787 -1.000568
2010-04-27 11:13:59 51°8.67 2°33.988 20.9034 0.07848 0.437729 -1.000568
2010-04-27 11:14:59 51°8.651 2°33.885 20.8988 0.07848 0.437671 -1.035392
2010-04-27 11:15:59 51°8.633 2°33.784 20.9032 0.07848 0.437613 -1.035392
2010-04-27 11:16:59 51°8.616 2°33.684 20.9091 0.07848 0.437555 -1.000568
2010-04-27 11:17:59 51°8.588 2°33.597 20.9163 0.078584 0.438091 -1.035392
2010-04-27 11:18:59 51°8.543 2°33.532 20.9247 0.078584 0.438012 -1.000568
2010-04-27 11:19:59 51°8.495 2°33.466 20.9255 0.078584 0.437954 -1.000568
2010-04-27 11:20:59 51°8.452 2°33.391 20.936 0.078584 0.437889 -1.000568
2010-04-27 11:21:59 51°8.405 2°33.316 20.9369 0.078584 0.437824 -1.000568
2010-04-27 11:22:59 51°8.358 2°33.24 20.939 0.078584 0.437759 -1.000568
2010-04-27 11:23:59 51°8.311 2°33.163 20.9354 0.078584 0.437686 -1.035392
2010-04-27 11:24:59 51°8.265 2°33.086 20.9415 0.078584 0.437621 -1.000568
2010-04-27 11:25:59 51°8.235 2°33.038 20.9443 0.078584 0.437549 -1.035392
2010-04-27 11:26:59 51°8.222 2°33.008 20.946 0.078584 0.437492 -1.000568
2010-04-27 11:27:59 51°8.222 2°32.992 20.9547 0.078584 0.43742 -1.035392
2010-04-27 11:28:59 51°8.229 2°32.986 20.9564 0.078584 0.437347 -1.000568
2010-04-27 11:29:59 51°8.239 2°32.988 20.9604 0.078584 0.437297 -1.000568
2010-04-27 11:30:59 51°8.252 2°32.996 20.9706 0.078688 0.437839 -1.000568
2010-04-27 11:31:59 51°8.266 2°33.01 20.9713 0.078584 0.437203 -1.000568
2010-04-27 11:32:59 51°8.281 2°33.028 20.9708 0.078688 0.43776 -1.000568
2010-04-27 11:33:59 51°8.297 2°33.05 20.9858 0.078688 0.437717 -1.000568
2010-04-27 11:34:59 51°8.313 2°33.074 20.9883 0.078688 0.437681 -1.000568
2010-04-27 11:35:59 51°8.329 2°33.1 20.9885 0.078688 0.437652 -1.000568
2010-04-27 11:36:59 51°8.346 2°33.127 20.9963 0.078688 0.43763 -0.965744
2010-04-27 11:37:59 51°8.363 2°33.156 20.9992 0.078688 0.437594 -1.000568
2010-04-27 11:38:59 51°8.379 2°33.186 21.0093 0.078688 0.437565 -1.000568
2010-04-27 11:39:59 51°8.396 2°33.218 21.0099 0.078688 0.437544 -1.000568
2010-04-27 11:40:59 51°8.412 2°33.249 21.0205 0.078688 0.437522 -1.000568
2010-04-27 11:41:59 51°8.439 2°33.261 21.0284 0.078688 0.437493 -1.035392
2010-04-27 11:42:59 51°8.489 2°33.257 21.0335 0.078688 0.437486 -1.035392
2010-04-27 11:43:59 51°8.584 2°33.271 21.0335 0.078688 0.43745 -1.035392
2010-04-27 11:44:59 51°8.667 2°33.33 21.0344 0.078688 0.437414 -1.035392
2010-04-27 11:45:59 51°8.735 2°33.416 21.0415 0.078688 0.437393 -1.000568
2010-04-27 11:46:59 51°8.787 2°33.523 21.0364 0.078688 0.437357 -1.035392
2010-04-27 11:47:59 51°8.817 2°33.646 21.0375 0.078688 0.437335 -1.035392
2010-04-27 11:48:59 51°8.826 2°33.769 21.0372 0.078688 0.437306 -1.000568
2010-04-27 11:49:59 51°8.823 2°33.888 21.0467 0.078688 0.437278 -1.000568
2010-04-27 11:50:59 51°8.822 2°34.009 21.045 0.078688 0.437242 -1.035392
2010-04-27 11:51:59 51°8.816 2°34.126 21.0503 0.078688 0.437227 -1.000568
2010-04-27 11:52:59 51°8.799 2°34.233 21.0472 0.078688 0.437199 -1.000568
2010-04-27 11:53:59 51°8.779 2°34.334 21.0476 0.078793 0.437761 -1.000568
2010-04-27 11:54:59 51°8.76 2°34.433 21.0475 0.078688 0.437127 -1.035392
2010-04-27 11:55:59 51°8.739 2°34.529 21.0584 0.078793 0.437697 -1.000568
2010-04-27 11:56:59 51°8.714 2°34.62 21.0591 0.078793 0.437668 -1.000568
2010-04-27 11:57:59 51°8.686 2°34.706 21.0588 0.078793 0.437625 -1.035392
2010-04-27 11:58:59 51°8.661 2°34.798 21.0573 0.078793 0.437589 -1.035392
2010-04-27 11:59:59 51°8.642 2°34.897 21.0606 0.078793 0.437546 -1.000568
2010-04-27 12:00:59 51°8.63 2°35.002 21.0658 0.078793 0.437488 -1.035392
2010-04-27 12:01:59 51°8.631 2°35.112 21.0608 0.078793 0.437438 -1.000568
2010-04-27 12:02:59 51°8.647 2°35.22 21.062 0.078793 0.437388 -1.000568
2010-04-27 12:03:59 51°8.676 2°35.323 21.0698 0.078793 0.437337 -1.035392
2010-04-27 12:04:59 51°8.716 2°35.416 21.0733 0.078793 0.437294 -1.000568
2010-04-27 12:05:59 51°8.762 2°35.505 21.0837 0.078793 0.437237 -1.000568
2010-04-27 12:06:59 51°8.804 2°35.602 21.0785 0.078793 0.437201 -1.000568
2010-04-27 12:07:59 51°8.842 2°35.705 21.0763 0.078793 0.437165 -1.035392
2010-04-27 12:08:59 51°8.879 2°35.809 21.08 0.078793 0.437129 -1.035392
2010-04-27 12:09:59 51°8.914 2°35.915 21.0821 0.078793 0.437101 -1.000568
2010-04-27 12:10:59 51°8.949 2°36.019 21.0807 0.078793 0.437079 -1.035392
2010-04-27 12:11:59 51°8.985 2°36.123 21.0971 0.078897 0.437656 -1.000568
2010-04-27 12:12:59 51°9.019 2°36.227 21.0902 0.078897 0.437634 -1.000568
2010-04-27 12:13:59 51°9.055 2°36.331 21.0924 0.078897 0.437627 -1.035392
2010-04-27 12:14:59 51°9.09 2°36.435 21.0932 0.078897 0.437605 -1.035392
2010-04-27 12:15:59 51°9.125 2°36.54 21.0961 0.078897 0.437598 -1.000568
2010-04-27 12:16:59 51°9.16 2°36.645 21.115 0.078897 0.437584 -1.035392
2010-04-27 12:17:59 51°9.196 2°36.75 21.1038 0.078897 0.437569 -1.035392
2010-04-27 12:18:59 51°9.231 2°36.855 21.1279 0.078897 0.437548 -1.035392
2010-04-27 12:19:59 51°9.267 2°36.96 21.1119 0.078897 0.437534 -1.000568
2010-04-27 12:20:59 51°9.296 2°37.07 21.1356 0.078897 0.437519 -1.000568
2010-04-27 12:21:59 51°9.31 2°37.185 21.1229 0.078897 0.437491 -1.000568
2010-04-27 12:22:59 51°9.311 2°37.295 21.1158 0.078897 0.437462 -1.035392
2010-04-27 12:23:59 51°9.296 2°37.392 21.1174 0.078897 0.437426 -1.000568
2010-04-27 12:24:59 51°9.272 2°37.477 21.1162 0.078897 0.437412 -1.000568
2010-04-27 12:25:59 51°9.24 2°37.546 21.1224 0.078897 0.437404 -1.035392
2010-04-27 12:26:59 51°9.204 2°37.57 21.1284 0.078897 0.43739 -1.000568
2010-04-27 12:27:59 51°9.184 2°37.545 21.1231 0.078897 0.437354 -1.035392
2010-04-27 12:28:59 51°9.185 2°37.522 21.1332 0.078897 0.43734 -1.000568
2010-04-27 12:29:59 51°9.189 2°37.513 21.1356 0.078897 0.437311 -1.000568
2010-04-27 12:30:59 51°9.193 2°37.514 21.1413 0.078897 0.43729 -1.000568
2010-04-27 12:31:59 51°9.196 2°37.517 21.1376 0.078897 0.437268 -1.000568
2010-04-27 12:32:59 51°9.206 2°37.47 21.1634 0.078897 0.437261 -1.035392
2010-04-27 12:33:59 51°9.256 2°37.311 21.194 0.078897 0.437225 -1.000568
2010-04-27 12:34:59 51°9.328 2°37.241 21.3583 0.078897 0.437197 -1.035392
2010-04-27 12:35:59 51°9.391 2°37.259 21.4103 0.078897 0.437175 -1.000568
2010-04-27 12:36:59 51°9.439 2°37.302 21.3188 0.078897 0.437139 -0.965744
2010-04-27 12:37:59 51°9.479 2°37.351 21.3141 0.078897 0.437111 -0.965744
2010-04-27 12:38:59 51°9.512 2°37.398 21.3055 0.079001 0.437665 -1.000568
2010-04-27 12:39:59 51°9.541 2°37.44 21.2948 0.079001 0.437636 -0.965744
2010-04-27 12:40:59 51°9.565 2°37.473 21.2863 0.078897 0.437011 -0.965744
2010-04-27 12:41:59 51°9.585 2°37.502 21.2798 0.079001 0.437586 -1.035392
2010-04-27 12:42:59 51°9.604 2°37.53 21.2733 0.079001 0.437572 -1.000568
2010-04-27 12:43:59 51°9.62 2°37.556 21.2603 0.079001 0.437536 -1.000568
2010-04-27 12:44:59 51°9.636 2°37.584 21.2515 0.079001 0.437507 -1.000568
2010-04-27 12:45:59 51°9.649 2°37.612 21.2456 0.079001 0.437472 -1.000568
2010-04-27 12:46:59 51°9.662 2°37.641 21.2387 0.079001 0.437443 -0.965744
2010-04-27 12:47:59 51°9.674 2°37.671 21.2348 0.079001 0.4374 -0.965744
2010-04-27 12:48:59 51°9.685 2°37.7 21.223 0.079001 0.437357 -1.035392
2010-04-27 12:49:59 51°9.695 2°37.731 21.219 0.079001 0.437321 -1.000568
2010-04-27 12:50:59 51°9.704 2°37.762 21.213 0.079001 0.437278 -1.000568
2010-04-27 12:51:59 51°9.713 2°37.793 21.2109 0.079001 0.437236 -1.000568
2010-04-27 12:52:59 51°9.72 2°37.824 21.2048 0.079001 0.437214 -1.000568
2010-04-27 12:53:59 51°9.728 2°37.855 21.1991 0.079001 0.437171 -1.000568
2010-04-27 12:54:59 51°9.734 2°37.886 21.1974 0.079001 0.437128 -1.035392
2010-04-27 12:55:59 51°9.741 2°37.918 21.1931 0.079105 0.437689 -1.000568
2010-04-27 12:56:59 51°9.746 2°37.948 21.1883 0.079105 0.437653 -1.000568
2010-04-27 12:57:59 51°9.752 2°37.978 21.1893 0.079105 0.43761 -1.000568
2010-04-27 12:58:59 51°9.757 2°38.009 21.1839 0.079105 0.437582 -1.000568
2010-04-27 12:59:59 51°9.763 2°38.072 21.1821 0.079105 0.437546 -1.000568
2010-04-27 13:00:59 51°9.764 2°38.258 21.1743 0.079105 0.437539 -0.965744
2010-04-27 13:01:59 51°9.765 2°38.498 21.1745 0.079105 0.437503 -1.000568
2010-04-27 13:02:59 51°9.772 2°38.744 21.181 0.079105 0.437489 -1.000568
2010-04-27 13:03:59 51°9.806 2°38.988 21.1797 0.079105 0.437467 -1.000568
2010-04-27 13:04:59 51°9.84 2°39.235 21.1835 0.079105 0.437446 -1.000568
2010-04-27 13:05:59 51°9.872 2°39.485 21.1786 0.079105 0.437424 -1.000568
2010-04-27 13:06:59 51°9.904 2°39.743 21.1898 0.079105 0.437403 -1.000568
2010-04-27 13:07:59 51°9.936 2°40.001 21.1873 0.079105 0.437382 -1.000568
2010-04-27 13:08:59 51°9.969 2°40.27 21.1989 0.079105 0.437353 -0.965744
2010-04-27 13:09:59 51°10.011 2°40.617 21.2028 0.079105 0.437339 -1.035392
2010-04-27 13:10:59 51°10.057 2°40.992 21.2143 0.079105 0.43731 -0.965744
2010-04-27 13:11:59 51°10.101 2°41.367 21.2144 0.079105 0.437282 -1.000568
2010-04-27 13:12:59 51°10.138 2°41.745 21.2152 0.079105 0.437274 -0.965744
2010-04-27 13:13:59 51°10.158 2°42.125 21.2205 0.079105 0.437239 -1.035392
2010-04-27 13:14:59 51°10.133 2°42.398 21.2352 0.079105 0.43726 -0.965744
2010-04-27 13:15:59 51°10.136 2°42.583 21.2369 0.079105 0.437225 -1.000568
2010-04-27 13:16:59 51°10.139 2°42.693 21.244 0.079105 0.437225 -1.000568
2010-04-27 13:17:59 51°10.142 2°42.713 21.2433 0.079209 0.437777 -1.000568
2010-04-27 13:18:59 51°10.146 2°42.729 21.2612 0.079209 0.437763 -1.000568
2010-04-27 13:19:59 51°10.149 2°42.747 21.256 0.079209 0.437749 -1.000568
2010-04-27 13:20:59 51°10.153 2°42.767 21.2679 0.079209 0.437742 -1.000568
2010-04-27 13:21:59 51°10.157 2°42.787 21.2712 0.079209 0.437727 -1.000568
2010-04-27 13:22:59 51°10.161 2°42.809 21.2828 0.079209 0.437713 -1.000568
2010-04-27 13:23:59 51°10.165 2°42.831 21.2842 0.079209 0.437713 -1.000568
2010-04-27 13:24:59 51°10.17 2°42.888 21.2818 0.079209 0.437699 -1.000568
2010-04-27 13:25:59 51°10.215 2°43.082 21.3011 0.079209 0.437692 -1.035392
2010-04-27 13:26:59 51°10.314 2°43.377 21.2806 0.079209 0.437685 -1.000568
2010-04-27 13:27:59 51°10.432 2°43.71 21.3022 0.079105 0.437089 -1.000568
2010-04-27 13:28:59 51°10.55 2°44.05 21.3038 0.079209 0.437677 -1.000568
2010-04-27 13:29:59 51°10.678 2°44.379 21.2987 0.079209 0.437663 -1.000568
2010-04-27 13:30:59 51°10.8 2°44.712 21.313 0.079209 0.437677 -1.035392
2010-04-27 13:31:59 51°10.946 2°45.02 21.3034 0.079209 0.437635 -0.965744
2010-04-27 13:32:59 51°11.09 2°45.328 21.2952 0.079209 0.43762 -1.000568
2010-04-27 13:33:59 51°11.219 2°45.651 21.3094 0.079209 0.437599 -1.000568
2010-04-27 13:34:59 51°11.345 2°45.977 21.3051 0.079209 0.437599 -1.000568
2010-04-27 13:35:59 51°11.473 2°46.302 12.4579 0.079209 0.437577 -1.10504
2010-04-27 13:36:59 51°11.603 2°46.63 15.0916 0.079209 0.437563 -1.000568
2010-04-27 13:37:59 51°11.732 2°46.959 15.5101 0.079209 0.437549 -0.965744
2010-04-27 13:38:59 51°11.861 2°47.288 15.6707 0.079209 0.437535 -0.965744
2010-04-27 13:39:59 51°11.991 2°47.617 15.9857 0.079209 0.437528 -1.000568
2010-04-27 13:40:59 51°12.121 2°47.942 16.0852 0.079209 0.437506 -1.000568
2010-04-27 13:41:59 51°12.25 2°48.269 16.1447 0.079209 0.437492 -1.000568
2010-04-27 13:42:59 51°12.38 2°48.599 18.5478 0.079209 0.437485 -1.000568
2010-04-27 13:43:59 51°12.511 2°48.929 17.6265 0.079209 0.437478 -0.965744
2010-04-27 13:44:59 51°12.643 2°49.261 17.8697 0.079209 0.437485 -1.000568
2010-04-27 13:45:59 51°12.757 2°49.611 18.55 0.079209 0.437463 -1.000568
2010-04-27 13:46:59 51°12.87 2°49.961 18.4879 0.079209 0.437456 -1.000568
2010-04-27 13:47:59 51°12.983 2°50.311 18.6268 0.079209 0.437456 -0.965744
2010-04-27 13:48:59 51°13.112 2°50.648 18.7345 0.079209 0.437456 -1.000568
2010-04-27 13:49:59 51°13.245 2°50.979 18.8741 0.079209 0.437456 -1.000568
2010-04-27 13:50:59 51°13.378 2°51.309 18.9782 0.079209 0.43747 -1.000568
2010-04-27 13:51:59 51°13.511 2°51.637 19.0797 0.079209 0.437478 -1.000568
2010-04-27 13:52:59 51°13.643 2°51.964 19.1854 0.079209 0.437492 -0.965744
2010-04-27 13:53:59 51°13.775 2°52.288 15.5814 0.079209 0.437478 -1.000568
2010-04-27 13:54:59 51°13.908 2°52.614 15.9853 0.079209 0.437463 -1.000568
2010-04-27 13:55:59 51°14.044 2°52.938 16.2758 0.079209 0.437463 -1.000568
2010-04-27 13:56:59 51°14.181 2°53.258 16.0652 0.079209 0.437449 -1.000568
2010-04-27 13:57:59 51°14.316 2°53.58 16.3367 0.079209 0.437449 -1.000568
2010-04-27 13:58:59 51°14.438 2°53.918 16.6484 0.079209 0.437456 -1.000568
2010-04-27 13:59:59 51°14.525 2°54.282 16.7145 0.079209 0.437449 -1.000568
2010-04-27 14:00:59 51°14.595 2°54.652 16.9488 0.079209 0.437435 -1.000568
2010-04-27 14:01:59 51°14.535 2°55.007 16.9219 0.079209 0.437435 -1.000568
2010-04-27 14:02:59 51°14.353 2°55.21 16.7895 0.079209 0.437449 -0.965744
2010-04-27 14:03:59 51°14.187 2°55.362 16.839 0.079209 0.437421 -1.000568
2010-04-27 14:04:59 51°14.052 2°55.466 16.8952 0.079209 0.437435 -1.000568
2010-04-27 14:05:59 51°13.931 2°55.552 16.7403 0.079209 0.437406 -1.000568
2010-04-27 14:06:59 51°13.82 2°55.637 16.9224 0.079209 0.437406 -1.000568
2010-04-27 14:08:01 51°13.737 2°55.743 17.1748 0.079313 0.437987 -1.000568
2010-04-27 14:09:02 51°13.689 2°55.849 17.2203 0.079209 0.437378 -1.000568
2010-04-27 14:10:03 51°13.666 2°55.939 17.3265 0.079209 0.437363 -1.035392